VK2HIM Weather Reports


Display with metric or nautical units.
time (UTC)temp
F
wind
direction
speed
MPH
gust
MPH
rain 1hr
in
rain 24hr
in
rain mn
in
humidity
%
barometer
mb
20221003205145 53 294 0.0 0.0 0.00 0.00 0.00 88 1021.6
20221003203145 52 294 0.0 0.0 0.00 0.00 0.00 88 1021.3
20221003201145 50 294 0.0 0.0 0.00 0.00 0.00 87 1021.0
20221003195144 50 294 0.0 0.0 0.00 0.00 0.00 86 1020.9
20221003193143 50 294 0.0 0.0 0.00 0.00 0.00 85 1020.7
20221003191143 50 294 0.0 0.0 0.00 0.00 0.00 85 1020.5
20221003185143 50 294 0.0 0.0 0.00 0.00 0.00 84 1020.4
20221003183143 50 294 0.0 0.0 0.00 0.00 0.00 84 1020.2
20221003181147 51 294 0.0 0.0 0.00 0.00 0.00 83 1020.1
20221003175147 51 294 0.0 0.0 0.00 0.00 0.00 83 1020.0
20221003173147 51 294 0.0 0.0 0.00 0.00 0.00 84 1019.9
20221003171147 51 294 0.0 0.0 0.00 0.00 0.00 83 1019.9
20221003165147 51 294 0.0 0.0 0.00 0.00 0.00 83 1019.9
20221003163147 51 294 0.0 0.0 0.00 0.00 0.00 82 1020.1
20221003161145 52 294 0.0 0.0 0.00 0.00 0.00 81 1020.0
20221003155145 52 294 0.0 0.0 0.00 0.00 0.00 80 1020.0
20221003153145 53 294 0.0 0.0 0.00 0.00 0.00 78 1020.1
20221003151145 54 294 0.0 0.0 0.00 0.00 0.00 74 1020.4
20221003145145 55 294 0.0 0.0 0.00 0.00 0.00 72 1020.5
20221003143145 56 294 0.0 0.0 0.00 0.00 0.00 70 1020.3
20221003141144 58 355 0.0 0.0 0.00 0.00 0.00 68 1020.3
20221003135144 59 1 3.0 5.0 0.00 0.00 0.00 66 1020.2
20221003133144 59 37 7.0 12.0 0.00 0.00 0.00 65 1020.4
20221003131144 59 20 5.0 6.0 0.00 0.00 0.00 66 1020.4
20221003125143 59 27 5.0 10.0 0.00 0.00 0.00 67 1020.2
20221003123143 59 38 6.0 10.0 0.00 0.00 0.00 66 1020.3
20221003121146 59 43 7.0 9.0 0.00 0.00 0.00 67 1020.3
20221003115146 60 29 6.0 10.0 0.00 0.00 0.00 67 1020.3
20221003113146 60 34 6.0 12.0 0.00 0.00 0.00 67 1020.4
20221003111146 60 29 5.0 12.0 0.00 0.00 0.00 66 1020.6
20221003105146 60 12 8.0 10.0 0.00 0.00 0.00 66 1020.6
20221003103146 60 44 9.0 10.0 0.00 0.00 0.00 67 1020.4
20221003101145 60 14 5.0 9.0 0.00 0.00 0.00 69 1020.6
20221003095145 60 37 6.0 10.0 0.00 0.00 0.00 69 1020.3
20221003093145 60 18 6.0 10.0 0.00 0.00 0.00 68 1020.1
20221003091145 60 53 7.0 8.0 0.00 0.00 0.00 67 1019.9
20221003085145 60 30 7.0 12.0 0.00 0.00 0.00 67 1019.7
20221003083144 61 33 8.0 13.0 0.00 0.00 0.00 66 1019.6
20221003081144 61 35 6.0 12.0 0.00 0.00 0.00 66 1019.4
20221003075144 62 46 6.0 8.0 0.00 0.00 0.00 64 1019.2
20221003073144 62 38 6.0 10.0 0.00 0.00 0.00 64 1019.2
20221003071144 62 58 9.0 13.0 0.00 0.00 0.00 62 1019.2
20221003065148 62 51 3.0 9.0 0.00 0.00 0.00 63 1019.2
20221003063148 62 55 9.0 12.0 0.00 0.00 0.00 61 1018.9
20221003061148 63 71 8.0 12.0 0.00 0.00 0.00 61 1018.7
20221003055148 64 57 8.0 13.0 0.00 0.00 0.00 60 1018.9
20221003053146 64 72 5.0 9.0 0.00 0.00 0.00 60 1019.0
20221003051146 65 50 7.0 12.0 0.00 0.00 0.00 58 1019.0
20221003045145 65 56 7.0 10.0 0.00 0.00 0.00 58 1019.2
20221003043145 65 66 7.0 12.0 0.00 0.00 0.00 57 1019.3
20221003041145 66 74 6.0 7.0 0.00 0.00 0.00 56 1019.4
20221003035145 67 63 7.0 12.0 0.00 0.00 0.00 56 1019.7
20221003033143 67 47 7.0 13.0 0.00 0.00 0.00 56 1020.0
20221003031143 67 74 7.0 9.0 0.00 0.00 0.00 55 1020.3
20221003025143 67 56 7.0 12.0 0.00 0.00 0.00 54 1020.8
20221003023143 67 50 5.0 7.0 0.00 0.00 0.00 58 1020.8
20221003021143 67 54 5.0 9.0 0.00 0.00 0.00 57 1021.0
20221003015147 68 65 6.0 7.0 0.00 0.00 0.00 55 1021.3
20221003013147 68 71 6.0 9.0 0.00 0.00 0.00 55 1021.4
20221003011147 68 75 3.0 7.0 0.00 0.00 0.00 56 1021.7
20221003005147 68 69 3.0 5.0 0.00 0.00 0.00 53 1022.1
20221003003146 70 81 3.0 6.0 0.00 0.00 0.00 52 1022.5
20221003001146 68 72 1.0 2.0 0.00 0.00 0.00 55 1022.8
20221002235146 68 130 1.0 3.0 0.00 0.00 0.00 55 1023.0
20221002233146 67 254 1.0 2.0 0.00 0.00 0.00 61 1023.1
20221002231145 64 258 0.0 0.0 0.00 0.00 0.00 60 1023.2
20221002225145 63 279 0.0 0.0 0.00 0.00 0.00 69 1023.2
20221002223145 60 263 0.0 0.0 0.00 0.00 0.00 78 1023.2
20221002221144 58 265 0.0 0.0 0.00 0.00 0.00 83 1023.0
20221002215144 56 265 0.0 0.0 0.00 0.00 0.00 90 1023.0
20221002213147 53 265 0.0 0.0 0.00 0.00 0.00 92 1023.0
20221002211147 51 265 0.0 0.0 0.00 0.00 0.00 93 1022.9